Lexington Weather

Lexington, Massachusetts, USA

32°F
12/8/2019 4:36pm 
  • Lexington Conditions: Mostly cloudy
  • Temperature: 32.2°F / 0.1°CColder 1.1°F than last hour.
  • Dew Point: 18.7°FIncreased 1.6°Fsince last hour.
  • Relative Humidity: 57%Increased 6.0% since last hour.
  • Wind: Wind from WNW WNW 1 mph, 10-min avg: 2 mph, gust: 5 mph
  • Barometer: 30.40 in Steady
  • Visibility: 10 miles
  • Snow Today: 0.0 in
  •   

Regional Weather Roundup
for Boston / Norton, MA

        
000
ASUS41 KBOX 060010
RWRBOX

REGIONAL WEATHER ROUNDUP
NATIONAL WEATHER SERVICE BOSTON/NORTON MA
700 PM EST THU DEC 05 2019

NOTE:  "FAIR" INDICATES FEW OR NO CLOUDS BELOW 12,000 FEET WITH NO 
SIGNIFICANT WEATHER AND/OR OBSTRUCTIONS TO VISIBILITY.

MAZALL-060100-
EASTERN MASSACHUSETTS
  
CITY           SKY/WX    TMP DP  RH WIND       PRES   REMARKS
BOSTON         FAIR      39  18  42 W15G24    29.80R WCI  31          
6HR MIN TEMP:  39; 6HR MAX TEMP:  45;                                

BEVERLY        CLOUDY    36  21  54 W12       29.78R WCI  28          
LAWRENCE       FAIR      33  20  58 SW3       29.80R                  
BEDFORD        FAIR      35  14  42 W13       29.80R WCI  26          
BLUE HILL        N/A     31  17  56 W14G26    29.77R WCI  21          
NORWOOD        FAIR      37  17  44 W9        29.81R WCI  30          
MARSHFIELD     MOCLDY    37  21  52 W10G18    29.80R WCI  30          
PLYMOUTH       CLOUDY    36  21  54 W9G22     29.81R WCI  29          
TAUNTON        FAIR      37  15  40 W10G24    29.83R WCI  30          
NEW BEDFORD    MOCLDY    37  19  48 W15G22    29.83R WCI  28          
$$

MAZALL-060100-
CAPE COD AND THE ISLANDS
  
CITY           SKY/WX    TMP DP  RH WIND       PRES   REMARKS
FALMOUTH       CLOUDY    37  21  52 NW12G20   29.81R WCI  30          
HYANNIS        CLOUDY    40  19  43 W9G21     29.80R                  
CHATHAM        CLOUDY    39  22  50 W13G25    29.81R WCI  31          
PROVINCETOWN   CLOUDY    40  22  48 W25G31    29.79R WCI  29          
NANTUCKET      CLOUDY    41  23  48 W17G28    29.81R                  
MARTHAS VNYRD  CLOUDY    39  20  46 NW18G25   29.83R WCI  30          
$$
 
MAZALL-060100-
CENTRAL AND WESTERN MASSACHUSETTS
  
CITY           SKY/WX    TMP DP  RH WIND       PRES   REMARKS
WORCESTER      FAIR      28  14  55 W21G28    29.78R WCI  15          
6HR MIN TEMP:  28; 6HR MAX TEMP:  37;                                

FITCHBURG      MOCLDY    33  16  49 W14G24    29.81R WCI  23          
ORANGE         CLOUDY    32  15  49 W12G21    29.83R WCI  23          
SPRINGFIELD    MOCLDY    32  17  55 W16       29.85R WCI  21          
WESTFIELD      CLOUDY    33  18  53 W20G31    29.88R WCI  21          
NORTH ADAMS    MOCLDY    29  16  58 W15G24    29.87R WCI  18          
PITTSFIELD     CLOUDY    28  18  66 NW16G25   29.84R WCI  16          
$$
 
RIZALL-060100-
RHODE ISLAND
  
CITY           SKY/WX    TMP DP  RH WIND       PRES   REMARKS
PROVIDENCE     FAIR      35  16  45 W17G26    29.85R WCI  25          
6HR MIN TEMP:  35; 6HR MAX TEMP:  42;                                

NEWPORT        MOCLDY    37  20  50 W10G20    29.85R WCI  30          
BLOCK ISLAND   CLOUDY    37  20  50 NW15G24   29.89R WCI  28          
SMITHFIELD     FAIR      33  14  45 W14       29.83R WCI  23          
WESTERLY       CLOUDY    39  17  41 VRB6G16   29.89R                  
$$
 
CTZALL-060100-
CONNECTICUT
  
CITY           SKY/WX    TMP DP  RH WIND       PRES   REMARKS
BRADLEY INTL   MOCLDY    37  18  46 NW9       29.89R WCI  30          
6HR MIN TEMP:  36; 6HR MAX TEMP:  42;                                

HARTFORD       CLOUDY    36  19  50 W12G17    29.90R WCI  28          
BRIDGEPORT     MOCLDY    38  23  55 W12       29.93R WCI  30          
DANBURY        FAIR      34  20  56 W14G20    29.92R WCI  25          
GROTON         CLOUDY    34  20  56 NW13      29.90R WCI  25          
NEW HAVEN      CLOUDY    40  24  53 W3        29.92R                  
CHESTER        CLOUDY    34  25  69 W7G17     29.89R WCI  28          
MERIDEN        FLURRIES  35  23  61 W10G17    29.91R WCI  27          
WILLIMANTIC    CLOUDY    35  17  47 W7        29.88R WCI  29          
OXFORD         CLOUDY    32  23  69 NW9       29.89R WCI  24          
$$

MEZ002-015-021-024-NHZ003-005-008-011-012-014-VTZ005-008-060100-
NORTHERN NEW ENGLAND
  
CITY           SKY/WX    TMP DP  RH WIND       PRES   REMARKS
PORTLAND ME    MOCLDY    38  25  59 W6        29.73R                  
6HR MIN TEMP:  35; 6HR MAX TEMP:  45;                                

BANGOR ME      FAIR      33  24  69 W5        29.67R WCI  29          
CONCORD NH     CLOUDY    33  18  53 NW7       29.77R WCI  27          
MANCHESTER NH  MOCLDY    35  18  49 W7        29.77R WCI  29          
NASHUA NH      FAIR      33  19  56 W8        29.80R WCI  26          
PORTSMOUTH NH  CLOUDY    36  18  48 W7        29.75R WCI  30          
JAFFREY NH     MOCLDY    30  14  51 VRB5G20   29.78R WCI  25          
KEENE NH       CLOUDY    31  19  61 W7        29.82R WCI  24          
BURLINGTON VT  CLOUDY    28  15  58 NW14G21   29.88R WCI  17          
MT. WASHINGTON NOT AVBL                                               
$$

NYZ052-076-060100-
EASTERN NEW YORK
  
CITY           SKY/WX    TMP DP  RH WIND       PRES   REMARKS
ALBANY         CLOUDY    32  18  56 NW12      29.94R WCI  23          
6HR MIN TEMP:  32; 6HR MAX TEMP:  38; 6HR PCP: TRACE;                

NEW YORK CITY  FAIR      40  22  48 W14G25    29.97R                  
6HR MIN TEMP:  40; 6HR MAX TEMP:  43;                                

$$
 
ANZALL-060100-
MARINE OBSERVATIONS
  
STATION/POSITION TIME  TEMP    WIND        PRES    VSBY  WAVE
                       AIR SEA DIR/SP/G                  HT/PER
                 (UTC) (F)     (DEG/KT/KT) (MB)    (MI)  (FT/S)
BOSTON BUOY      2350   40 48  280/ 21/ 27 1007.5R         4/ 4
BUZZARDS BAY     2300   40     310/ 24/ 26 1010.4R
NANTUCKET SOUND  2330   41                   N/A
MASS BAY-STELLWA 2304   40 47  310/ 23/ 27 1005.5R  1 7/8  4/ 4
ISLE OF SHOALS   2300   38     290/ 26/ 30 1005.9R
S OF BLOCK IS    2330      51                N/A           6/ 6
$$

......................KEY.........................
  SKY/WX - SKY CONDITION/PRESENT WEATHER
  TMP    - TEMPERATURE IN FAHRENHEIT
  DWPT   - DEWPOINT IN FAHRENHEIT
  RH     - RELATIVE HUMIDITY IN PERCENT
  WIND   - DIRECTION AND SPEED IN MPH
  PRES   - MEAN SEA LEVEL PRESSURE IN INCHES OF HG
  WCI    - WIND CHILL INDEX
  VSB    - VISIBILITY IN MILES
  HX     - HEAT INDEX
  TC     - TEMPERATURE IN CELSIUS
  VRB    - VARIABLE WIND DIRECTION
  N/A    - NOT AVAILABLE
  
      

Other recent Regional Weather Roundups

Sun Dec 8, 4:10pm

Sun Dec 8, 4:01pm

Sun Dec 8, 3:10pm

Sun Dec 8, 3:01pm

Sun Dec 8, 2:10pm

Sun Dec 8, 2:01pm

Sun Dec 8, 1:10pm

Sun Dec 8, 1:00pm

Sun Dec 8, 12:10pm

Sun Dec 8, 12:01pm

Sun Dec 8, 11:10am

Sun Dec 8, 11:00am

Sun Dec 8, 10:10am

Sun Dec 8, 10:01am

Sun Dec 8, 9:10am

Sun Dec 8, 9:00am

Sun Dec 8, 8:10am

Sun Dec 8, 8:00am

Sun Dec 8, 7:10am

Sun Dec 8, 7:00am

Sun Dec 8, 6:10am

Sun Dec 8, 6:00am

Sun Dec 8, 5:10am

Sun Dec 8, 5:00am

Sun Dec 8, 4:10am

Sun Dec 8, 4:00am

Sun Dec 8, 3:10am

Sun Dec 8, 3:00am

Sun Dec 8, 2:10am

Sun Dec 8, 2:00am

Sun Dec 8, 1:10am

Sun Dec 8, 1:00am

Sun Dec 8, 12:10am

Sun Dec 8, 12:01am

Sat Dec 7, 11:10pm

Sat Dec 7, 11:00pm

Sat Dec 7, 10:10pm

Sat Dec 7, 10:00pm

Sat Dec 7, 9:10pm

Sat Dec 7, 9:00pm

Sat Dec 7, 8:10pm

Sat Dec 7, 8:00pm

Sat Dec 7, 7:10pm

Sat Dec 7, 7:00pm

Sat Dec 7, 6:10pm

Sat Dec 7, 6:00pm

Sat Dec 7, 5:10pm

Sat Dec 7, 5:00pm

Sat Dec 7, 4:10pm

Sat Dec 7, 4:00pm

Sat Dec 7, 3:10pm

Sat Dec 7, 3:00pm

Sat Dec 7, 2:10pm

Sat Dec 7, 2:01pm

Sat Dec 7, 1:10pm

Sat Dec 7, 1:00pm

Sat Dec 7, 12:10pm

Sat Dec 7, 12:01pm

Sat Dec 7, 11:10am

Sat Dec 7, 11:00am

Sat Dec 7, 10:10am

Sat Dec 7, 10:01am

Sat Dec 7, 9:10am

Sat Dec 7, 9:00am

Sat Dec 7, 8:10am

Sat Dec 7, 8:00am

Sat Dec 7, 7:10am

Sat Dec 7, 7:00am

Sat Dec 7, 6:10am

Sat Dec 7, 6:00am

Sat Dec 7, 5:10am

Sat Dec 7, 5:00am

Sat Dec 7, 4:10am

Sat Dec 7, 4:00am

Sat Dec 7, 3:10am

Sat Dec 7, 3:00am

Sat Dec 7, 2:10am

Sat Dec 7, 2:01am

Sat Dec 7, 1:10am

Sat Dec 7, 1:00am

Sat Dec 7, 12:10am

Sat Dec 7, 12:01am

Fri Dec 6, 11:10pm

Fri Dec 6, 11:00pm

Fri Dec 6, 10:10pm

Fri Dec 6, 10:00pm

Fri Dec 6, 9:10pm

Fri Dec 6, 9:00pm

Fri Dec 6, 8:10pm

Fri Dec 6, 8:00pm

Fri Dec 6, 7:10pm

Fri Dec 6, 7:01pm

Fri Dec 6, 6:10pm

Fri Dec 6, 6:00pm

Fri Dec 6, 5:10pm

Fri Dec 6, 5:00pm

Fri Dec 6, 4:10pm

Fri Dec 6, 4:00pm

Fri Dec 6, 3:10pm

Fri Dec 6, 3:00pm

Fri Dec 6, 2:10pm

Fri Dec 6, 2:00pm

Fri Dec 6, 1:10pm

Fri Dec 6, 1:00pm

Fri Dec 6, 12:10pm

Fri Dec 6, 12:00pm

Fri Dec 6, 11:10am

Fri Dec 6, 11:00am

Fri Dec 6, 10:10am

Fri Dec 6, 10:00am

Fri Dec 6, 9:10am

Fri Dec 6, 9:00am

Fri Dec 6, 8:10am

Fri Dec 6, 8:00am

Fri Dec 6, 7:10am

Fri Dec 6, 7:00am

Fri Dec 6, 6:10am

Fri Dec 6, 6:01am

Fri Dec 6, 5:10am

Fri Dec 6, 5:00am

Fri Dec 6, 4:10am

Fri Dec 6, 4:00am

Fri Dec 6, 3:10am

Fri Dec 6, 3:00am

Fri Dec 6, 2:10am

Fri Dec 6, 2:00am

Fri Dec 6, 1:10am

Fri Dec 6, 1:00am

Fri Dec 6, 12:10am

Fri Dec 6, 12:00am

Thu Dec 5, 11:10pm

Thu Dec 5, 11:00pm

Thu Dec 5, 10:10pm

Thu Dec 5, 10:01pm

Thu Dec 5, 9:10pm

Thu Dec 5, 9:01pm

Thu Dec 5, 8:10pm

Thu Dec 5, 8:00pm

Thu Dec 5, 7:00pm

Thu Dec 5, 6:10pm

Thu Dec 5, 6:00pm

Thu Dec 5, 5:10pm

Thu Dec 5, 5:00pm

Meta data:

ID: 13bc9625-5f56-45bb-9b38-7169feedde29
Link: https://api.weather.gov/products/13bc9625-5f56-45bb-9b38-7169feedde29